Le Mars Municipal Airport
Sunday 3:15 PM
Temperature79° (79°/59°)
Dew Point61°
Relative Humidity54
%
Visibility10
mi
Pressure1018.6
mb
Wind DirectionSE
140°
Wind Speed22
mph
(G35)
Precipitation Today0.00"

Last 30 Observations

Time PresWx Temp DP Feels RH% Vsby Pressure Ceiling Direction Speed 1h Precip
2:55 PM 79° 61° 54
%
10
mi
1019.0
mb
SSE
150°
22
mph
0.00"
2:35 PM 79° 63° 58
%
10
mi
1019.7
mb
SE
140°
22
mph
(G36)
0.00"
2:15 PM 75° 59° 57
%
10
mi
1020.0
mb
SSE
150°
21
mph
(G32)
0.00"
1:55 PM 75° 59° 57
%
10
mi
1020.3
mb
SE
140°
24
mph
0.00"
1:35 PM 72° 57° 60
%
10
mi
1020.7
mb
9,000
ft
SSE
150°
23
mph
(G31)
0.00"
1:15 PM 72° 57° 60
%
10
mi
1021.3
mb
9,000
ft
SSE
150°
22
mph
0.00"
12:55 PM 70° 55° 60
%
10
mi
1021.7
mb
8,000
ft
SSE
150°
20
mph
0.00"
12:35 PM 70° 55° 60
%
10
mi
1022.0
mb
8,000
ft
SSE
150°
22
mph
0.00"
12:15 PM 68° 54° 60
%
10
mi
1022.4
mb
8,000
ft
SE
130°
23
mph
0.00"
11:55 AM 66° 54° 64
%
10
mi
1022.7
mb
6,500
ft
SE
140°
20
mph
(G28)
0.00"
11:35 AM 66° 55° 68
%
10
mi
1023.0
mb
6,500
ft
SSE
150°
17
mph
0.00"
11:15 AM 64° 55° 73
%
10
mi
1023.0
mb
7,000
ft
SSE
150°
15
mph
0.00"
10:55 AM 64° 54° 68
%
10
mi
1023.4
mb
7,000
ft
SSE
150°
15
mph
0.00"
10:35 AM 64° 54° 68
%
10
mi
1023.4
mb
7,000
ft
SE
140°
16
mph
0.00"
10:15 AM 64° 54° 68
%
10
mi
1023.4
mb
7,000
ft
SSE
150°
15
mph
0.00"
9:55 AM 64° 55° 73
%
10
mi
1023.7
mb
7,000
ft
SE
140°
11
mph
0.00"
9:35 AM 63° 54° 72
%
10
mi
1023.7
mb
7,000
ft
SE
140°
14
mph
0.00"
9:15 AM 63° 54° 72
%
10
mi
1023.7
mb
6,500
ft
SE
140°
13
mph
(G20)
0.00"
8:55 AM 63° 54° 72
%
10
mi
1023.7
mb
5,000
ft
SE
130°
15
mph
0.00"
8:35 AM 63° 54° 72
%
10
mi
1023.7
mb
5,000
ft
SE
130°
15
mph
0.00"
8:15 AM 63° 54° 72
%
10
mi
1023.7
mb
5,000
ft
ESE
120°
9
mph
0.00"
7:55 AM 63° 54° 72
%
10
mi
1023.7
mb
5,000
ft
ESE
120°
11
mph
0.00"
7:35 AM 61° 52° 72
%
10
mi
1023.4
mb
5,000
ft
E
100°
11
mph
0.00"
7:15 AM 61° 54° 77
%
10
mi
1023.4
mb
5,500
ft
E
100°
9
mph
0.00"
6:55 AM 61° 54° 77
%
10
mi
1023.4
mb
5,500
ft
E
100°
8
mph
0.00"
6:35 AM 61° 54° 77
%
10
mi
1023.0
mb
5,500
ft
ESE
110°
9
mph
0.00"
6:15 AM 61° 54° 77
%
10
mi
1023.0
mb
5,500
ft
ESE
110°
6
mph
0.00"
5:55 AM 61° 54° 77
%
10
mi
1023.0
mb
5,500
ft
E
90°
6
mph
0.00"
5:35 AM 61° 54° 77
%
10
mi
1023.0
mb
5,500
ft
ENE
70°
3
mph
0.00"
5:15 AM 61° 55° 82
%
10
mi
1022.7
mb
5,500
ft
E
100°
3
mph
0.00"